Location: Corcelles
(46.1547°N, 4.7234°E)
Time: 21:04:27
(UTC+00:00)

Okean 1-7 - Pass Details

Date: 14 July 2020
Orbit: 591 x 618 km, 82.5° (Epoch: 14 August)

Event Time Altitude Azimuth Distance (km) Brightness Sun altitude
Rises 01:11:50 0° 349° (NNW) 2,905 7.5 -19.5°
Reaches altitude 10° 01:14:05 10° 347° (NNW) 1,994 6.5 -19.4°
Maximum altitude 01:18:29 72° 264° (W) 655 3.0 -19.1°
Enters shadow 01:19:47 44° 193° (SSW) 858 3.3 -19.0°
